Retour au catalogue

METEOR 2-8

ActifMétéoPO
NORAD 13113·PAYLOAD·🇷🇺 Russia

Lancé Mar 25, 1982 depuis Plesetsk Cosmodrome

Loading…

Prochains Passages (prochaines 24 heures)

TLE

FraisSource: Space-Track

Époque: Sep 14, 2026, 08:19 UTC

1 13113U 82025A   26257.34691469  .00000021  00000-0  57213-5 0  9996
2 13113  82.5412  27.0888 0017606 350.9630  38.1521 13.85604000247990

Suivez METEOR 2-8 en temps réel avec AllMySat

Download on the App Store